Location: NJAA Observatory
(40.6819°N, 74.8979°W)
Time: 10:07:29
(UTC-04:00)

Iridium 56 - Visible Passes

Search period start: 04 August 2015 00:00
Search period end: 14 August 2015 00:00
Orbit: 776 x 779 km, 86.4° (Epoch: 03 August)

Date Brightness Start Highest point End Pass type
(mag) Time Alt. Az. Time Alt. Az. Time Alt. Az.
04 Aug 7.7 00:03:11 14° W 00:05:08 17° WNW 00:08:21 10° NW visible
04 Aug 6.4 21:49:05 26° ESE 21:50:32 30° E 21:55:05 10° NNE visible
04 Aug 7.0 23:29:32 25° WSW 23:31:15 30° W 23:35:48 10° NNW visible
05 Aug 7.2 21:15:25 14° ESE 21:17:14 17° E 21:20:32 10° NE visible
05 Aug 6.0 22:55:52 39° SW 22:57:33 55° W 23:02:40 10° N visible
06 Aug 5.4 22:22:11 42° S 22:23:59 80° E 22:29:13 10° N visible
07 Aug 8.1 00:03:39 10° W 00:05:31 11° WNW 00:07:03 10° NW visible
07 Aug 5.9 21:48:29 29° SE 21:50:31 43° E 21:55:28 10° NNE visible
07 Aug 7.6 23:28:55 15° WSW 23:31:32 21° WNW 23:35:24 10° NNW visible
08 Aug 6.7 21:14:44 17° ESE 21:17:10 24° E 21:21:19 10° NNE visible
08 Aug 6.7 22:55:11 24° SW 22:57:43 38° W 23:02:33 10° NNW visible
09 Aug 7.4 20:41:48 10° ESE 20:43:54 13° ENE 20:46:18 10° NE visible
09 Aug 5.7 22:21:26 30° SSW 22:24:04 71° W 22:29:17 10° N visible
10 Aug 5.5 21:47:38 26° SSE 21:50:32 63° E 21:55:43 10° N visible
10 Aug 8.1 23:28:51 10° WSW 23:31:52 15° WNW 23:34:39 10° NW visible
11 Aug 6.2 21:13:49 17° SE 21:17:07 34° E 21:21:49 10° NNE visible
11 Aug 7.3 22:54:16 13° SW 22:57:56 27° WNW 23:02:17 10° NNW visible
12 Aug 7.0 20:40:22 10° ESE 20:43:48 19° E 20:47:26 10° NE visible
12 Aug 6.3 22:20:25 17° SSW 22:24:11 48° W 22:29:14 10° N visible
13 Aug 5.5 21:46:30 17° S 21:50:36 90° NW 21:55:51 10° N visible
